User: anonymous   Login
Location: Unspecified
(0.0000°N, 0.0000°E)
Time: 23:49:25
(UTC+00:00)
Language:

AIST 2D - Orbit

View from above orbital plane
View from above orbital plane
View from above satellite
View from above satellite

Ground track
Ground track

The orbit data is extracted from the following two-line orbital elements,

1 41465U 16026B   17349.43867965  .00001889  00000-0  63278-4 0  9993
2 41465  97.2356 248.2878 0010327 300.9324 145.9291 15.32112631 91205
Epoch (UTC): 15 December 2017 10:31:41
Eccentricity: 0.0010327
inclination: 97.2356°
perigee height: 462 km
apogee height: 476 km
right ascension of ascending node: 248.2878°
argument of perigee: 300.9324°
revolutions per day: 15.32112631
mean anomaly at epoch: 145.9291°
orbit number at epoch: 9120

The dashed part of the orbit path shows where the satellite is in the earth's shadow,  

DLR